OK2ZAW-16 Weather Reports


time (UTC)temp
C
wind
direction
speed
KPH
gust
KPH
rain 1hr
cm
rain 24hr
cm
rain mn
cm
humidity
%
barometer
mb
20260507021411 7 270 3.2 4.8 0.00 0.00 0.00 77 1009.3
20260507020908 7 270 3.2 9.7 0.00 0.00 0.00 77 1009.3
20260507020902 7 270 3.2 9.7 0.00 0.00 0.00 77 1009.3
20260507020359 7 270 1.6 4.8 0.00 0.00 0.00 77 1009.2
20260507020353 7 270 1.6 4.8 0.00 0.00 0.00 77 1009.2
20260507015851 7 270 1.6 3.2 0.00 0.00 0.00 77 1009.2
20260507015844 7 270 1.6 3.2 0.00 0.00 0.00 77 1009.2
20260507015342 7 270 1.6 3.2 0.00 0.00 0.00 77 1009.3
20260507015336 7 270 1.6 3.2 0.00 0.00 0.00 77 1009.3
20260507014833 7 270 0.0 1.6 0.00 0.00 0.00 77 1009.4
20260507014827 7 270 0.0 1.6 0.00 0.00 0.00 77 1009.4
20260507013816 7 270 1.6 1.6 0.00 0.00 0.00 77 1009.5
20260507013809 7 270 1.6 1.6 0.00 0.00 0.00 77 1009.5
20260507013308 7 270 1.6 3.2 0.00 0.00 0.00 77 1009.4
20260507013300 7 270 1.6 3.2 0.00 0.00 0.00 77 1009.4
20260507012758 7 270 1.6 1.6 0.00 0.00 0.00 77 1009.3
20260507012752 7 270 1.6 1.6 0.00 0.00 0.00 77 1009.3
20260507012243 7 270 1.6 3.2 0.00 0.00 0.00 77 1009.3
20260507011734 7 270 1.6 1.6 0.00 0.00 0.00 77 1009.2
20260507011232 7 270 1.6 3.2 0.00 0.00 0.00 77 1009.0
20260507011225 7 270 1.6 3.2 0.00 0.00 0.00 77 1009.0
20260507010717 7 270 1.6 3.2 0.00 0.00 0.00 77 1008.9
20260507010208 7 270 1.6 3.2 0.00 0.00 0.00 78 1008.9
20260507005705 7 270 1.6 3.2 0.00 0.00 0.00 78 1008.8
20260507005659 7 270 1.6 3.2 0.00 0.00 0.00 78 1008.8
20260507005150 7 270 1.6 4.8 0.00 0.00 0.00 78 1008.9
20260507004642 7 270 1.6 3.2 0.00 0.00 0.00 78 1008.9
20260507004149 7 270 1.6 4.8 0.00 0.00 0.00 78 1008.8
20260507004139 7 270 1.6 4.8 0.00 0.00 0.00 78 1008.8
20260507004133 7 270 1.6 4.8 0.00 0.00 0.00 78 1008.8
20260507003630 7 270 3.2 4.8 0.00 0.00 0.00 78 1008.6
20260507003624 7 270 3.2 4.8 0.00 0.00 0.00 78 1008.6
20260507003115 7 270 3.2 6.4 0.00 0.00 0.00 78 1008.5
20260507002607 7 270 3.2 6.4 0.00 0.00 0.00 78 1008.4
20260507002058 7 270 3.2 4.8 0.00 0.00 0.00 78 1008.5
20260507001549 7 270 3.2 6.4 0.00 0.00 0.00 78 1008.7
20260507001046 7 270 3.2 6.4 0.00 0.00 0.00 78 1008.6
20260507001040 7 270 3.2 6.4 0.00 0.00 0.00 78 1008.6
20260507000531 7 270 3.2 4.8 0.00 0.00 0.00 78 1008.7
20260507000023 7 270 3.2 4.8 0.00 0.00 0.00 78 1008.7
20260506235521 7 270 3.2 8.0 0.00 0.00 0.00 78 1008.8
20260506235514 7 270 3.2 8.0 0.00 0.00 0.00 78 1008.8
20260506235012 7 270 3.2 6.4 0.00 0.00 0.00 78 1008.8
20260506235005 7 270 3.2 6.4 0.00 0.00 0.00 78 1008.8
20260506234503 7 270 3.2 6.4 0.00 0.00 0.00 78 1008.9
20260506234456 7 270 3.2 6.4 0.00 0.00 0.00 78 1008.9
20260506233954 7 270 3.2 6.4 0.00 0.00 0.00 78 1009.0
20260506233947 7 270 3.2 6.4 0.00 0.00 0.00 78 1009.0
20260506233445 7 270 3.2 6.4 0.00 0.00 0.00 78 1009.0
20260506233439 7 270 3.2 6.4 0.00 0.00 0.00 78 1009.0
20260506232930 8 270 4.8 6.4 0.00 0.00 0.00 78 1009.0
20260506231919 8 270 3.2 4.8 0.00 0.00 0.00 77 1009.3
20260506231912 8 270 3.2 4.8 0.00 0.00 0.00 77 1009.3
20260506231410 8 270 3.2 4.8 0.00 0.00 0.00 77 1009.1
20260506231404 8 270 3.2 4.8 0.00 0.00 0.00 77 1009.1
20260506230855 8 270 3.2 6.4 0.00 0.00 0.00 77 1009.0
20260506230352 8 270 3.2 6.4 0.00 0.00 0.00 77 1009.1
20260506230346 8 270 3.2 6.4 0.00 0.00 0.00 77 1009.1
20260506225843 8 270 4.8 8.0 0.00 0.00 0.00 77 1009.0
20260506225837 8 270 4.8 8.0 0.00 0.00 0.00 77 1009.0
20260506225335 8 270 3.2 8.0 0.00 0.00 0.00 76 1009.0
20260506225328 8 270 3.2 8.0 0.00 0.00 0.00 76 1009.0
20260506224826 8 270 3.2 4.8 0.00 0.00 0.00 76 1008.9
20260506224820 8 270 3.2 4.8 0.00 0.00 0.00 76 1008.9
20260506224318 8 270 3.2 4.8 0.00 0.00 0.00 76 1008.8
20260506224311 8 270 3.2 4.8 0.00 0.00 0.00 76 1008.8
20260506223259 8 270 3.2 6.4 0.00 0.00 0.00 76 1008.7
20260506223253 8 270 3.2 6.4 0.00 0.00 0.00 76 1008.7
20260506222242 8 270 3.2 4.8 0.00 0.00 0.00 76 1008.5
20260506222236 8 270 3.2 4.8 0.00 0.00 0.00 76 1008.5
20260506221733 8 270 1.6 3.2 0.00 0.00 0.00 75 1008.4
20260506221727 8 270 1.6 3.2 0.00 0.00 0.00 75 1008.4
20260506220715 8 270 3.2 3.2 0.00 0.00 0.00 75 1008.3
20260506220709 8 270 3.2 3.2 0.00 0.00 0.00 75 1008.3
20260506220444 8 270 3.2 4.8 0.00 0.00 0.00 75 1008.2
20260506220200 8 270 3.2 4.8 0.00 0.00 0.00 75 1008.2
20260506215658 8 270 3.2 3.2 0.00 0.00 0.00 75 1008.2
20260506215652 8 270 3.2 3.2 0.00 0.00 0.00 75 1008.2
20260506215149 8 270 3.2 4.8 0.00 0.00 0.00 75 1008.1
20260506215143 8 270 3.2 4.8 0.00 0.00 0.00 75 1008.1
20260506214640 7 270 3.2 3.2 0.00 0.00 0.00 75 1008.1
20260506214634 7 270 3.2 3.2 0.00 0.00 0.00 75 1008.1
20260506214132 7 270 3.2 6.4 0.00 0.00 0.00 75 1008.2
20260506214125 7 270 3.2 6.4 0.00 0.00 0.00 75 1008.2
20260506213623 7 270 3.2 6.4 0.00 0.00 0.00 75 1008.2
20260506213616 7 270 3.2 6.4 0.00 0.00 0.00 75 1008.2
20260506213114 7 270 4.8 4.8 0.00 0.00 0.00 75 1008.2
20260506213108 7 270 4.8 4.8 0.00 0.00 0.00 75 1008.2
20260506212559 7 270 4.8 6.4 0.00 0.00 0.00 75 1008.1
20260506212056 7 270 3.2 4.8 0.00 0.00 0.00 75 1008.1
20260506212050 7 270 3.2 4.8 0.00 0.00 0.00 75 1008.1
20260506211548 7 270 3.2 6.4 0.00 0.00 0.00 74 1008.1
20260506211541 7 270 3.2 6.4 0.00 0.00 0.00 74 1008.1
20260506211039 7 270 3.2 4.8 0.00 0.00 0.00 75 1008.2
20260506211033 7 270 3.2 4.8 0.00 0.00 0.00 75 1008.2
20260506210524 7 270 3.2 4.8 0.00 0.00 0.00 75 1008.0
20260506210021 7 270 3.2 6.4 0.00 0.00 0.00 75 1008.0
20260506210015 7 270 3.2 6.4 0.00 0.00 0.00 75 1008.0
20260506205513 7 270 4.8 6.4 0.00 0.00 0.00 75 1008.2
20260506205506 7 270 4.8 6.4 0.00 0.00 0.00 75 1008.2
20260506205004 7 270 3.2 6.4 0.00 0.00 0.00 75 1008.2
20260506204957 7 270 3.2 6.4 0.00 0.00 0.00 75 1008.2
20260506204452 7 270 3.2 4.8 0.00 0.00 0.00 75 1008.2
20260506204449 7 270 3.2 4.8 0.00 0.00 0.00 75 1008.2
20260506203946 7 270 3.2 6.4 0.00 0.00 0.00 74 1008.3
20260506203940 7 270 3.2 6.4 0.00 0.00 0.00 74 1008.3
20260506203437 7 270 3.2 4.8 0.00 0.00 0.00 75 1008.2
20260506203431 7 270 3.2 4.8 0.00 0.00 0.00 75 1008.2
20260506202929 7 270 3.2 6.4 0.00 0.00 0.00 75 1008.3
20260506202922 7 270 3.2 6.4 0.00 0.00 0.00 75 1008.3
20260506202420 7 270 3.2 4.8 0.00 0.00 0.00 75 1008.3
20260506202414 7 270 3.2 4.8 0.00 0.00 0.00 75 1008.3
20260506201905 7 270 3.2 6.4 0.00 0.00 0.00 75 1008.2
20260506201402 8 270 3.2 6.4 0.00 0.00 0.00 75 1008.2
20260506201356 8 270 3.2 6.4 0.00 0.00 0.00 75 1008.2
20260506200854 8 270 3.2 4.8 0.00 0.00 0.00 75 1008.2
20260506200847 8 270 3.2 4.8 0.00 0.00 0.00 75 1008.2
20260506200346 8 270 3.2 8.0 0.00 0.00 0.00 76 1008.0
20260506200338 8 270 3.2 8.0 0.00 0.00 0.00 76 1008.0
20260506195836 8 270 4.8 4.8 0.00 0.00 0.00 75 1008.2
20260506195830 8 270 4.8 4.8 0.00 0.00 0.00 75 1008.2
20260506195328 8 270 3.2 4.8 0.00 0.00 0.00 75 1008.1
20260506195321 8 270 3.2 4.8 0.00 0.00 0.00 75 1008.1
20260506194310 8 270 4.8 6.4 0.00 0.00 0.00 74 1008.1
20260506194303 8 270 4.8 6.4 0.00 0.00 0.00 74 1008.1
20260506193801 8 270 4.8 6.4 0.00 0.00 0.00 73 1008.2
20260506193754 8 270 4.8 6.4 0.00 0.00 0.00 73 1008.2
20260506193252 9 270 3.2 4.8 0.00 0.00 0.00 72 1008.3
20260506193246 9 270 3.2 4.8 0.00 0.00 0.00 72 1008.3
20260506192737 9 270 3.2 4.8 0.00 0.00 0.00 72 1008.4
20260506191725 9 270 1.6 3.2 0.00 0.00 0.00 72 1008.3
20260506191719 9 270 1.6 3.2 0.00 0.00 0.00 72 1008.3
20260506191210 9 270 3.2 4.8 0.00 0.00 0.00 72 1008.3
20260506190153 10 270 1.6 1.6 0.00 0.00 0.00 71 1008.1
20260506185650 10 270 0.0 1.6 0.00 0.00 0.00 71 1008.1
20260506185644 10 270 0.0 1.6 0.00 0.00 0.00 71 1008.1
20260506185135 10 270 1.6 3.2 0.00 0.00 0.00 71 1008.1
20260506184117 10 270 3.2 4.8 0.00 0.00 0.00 71 1008.0
20260506183615 10 270 3.2 6.4 0.00 0.00 0.00 71 1008.0
20260506183608 10 270 3.2 6.4 0.00 0.00 0.00 71 1008.0
20260506183106 10 270 4.8 11.3 0.00 0.00 0.00 71 1007.9
20260506183100 10 270 4.8 11.3 0.00 0.00 0.00 71 1007.9
20260506182557 10 270 3.2 9.7 0.00 0.00 0.00 71 1007.6
20260506182551 10 270 3.2 9.7 0.00 0.00 0.00 71 1007.6
20260506181624 10 270 6.4 9.7 0.00 0.00 0.00 69 1007.3
20260506181539 10 270 6.4 9.7 0.00 0.00 0.00 69 1007.3
20260506181533 10 270 6.4 9.7 0.00 0.00 0.00 69 1007.3
20260506181024 10 270 6.4 8.0 0.00 0.00 0.00 69 1007.2
20260506180521 10 270 4.8 8.0 0.00 0.00 0.00 69 1007.3
20260506180515 10 270 4.8 8.0 0.00 0.00 0.00 69 1007.3
20260506180013 10 270 4.8 9.7 0.00 0.00 0.00 69 1007.2
20260506180006 10 270 4.8 9.7 0.00 0.00 0.00 69 1007.2
20260506175504 10 270 4.8 8.0 0.00 0.00 0.00 69 1007.3
20260506175457 10 270 4.8 8.0 0.00 0.00 0.00 69 1007.3
20260506174955 10 270 6.4 9.7 0.00 0.00 0.00 69 1007.3
20260506174949 10 270 6.4 9.7 0.00 0.00 0.00 69 1007.3
20260506174440 10 270 4.8 8.0 0.00 0.00 0.00 69 1007.4
20260506173428 10 270 4.8 8.0 0.00 0.00 0.00 68 1007.5
20260506173422 10 270 4.8 8.0 0.00 0.00 0.00 68 1007.5
20260506172919 10 270 3.2 8.0 0.00 0.00 0.00 68 1007.5
20260506172913 10 270 3.2 8.0 0.00 0.00 0.00 68 1007.5
20260506172411 10 270 4.8 6.4 0.00 0.00 0.00 68 1007.5
20260506172404 10 270 4.8 6.4 0.00 0.00 0.00 68 1007.5
20260506171902 10 270 3.2 4.8 0.00 0.00 0.00 68 1007.3
20260506171855 10 270 3.2 4.8 0.00 0.00 0.00 68 1007.3
20260506171420 10 270 1.6 3.2 0.00 0.00 0.00 68 1007.4
20260506171347 10 270 1.6 3.2 0.00 0.00 0.00 68 1007.4
20260506170838 10 270 1.6 4.8 0.00 0.00 0.00 68 1007.6
20260506170329 10 270 3.2 6.4 0.00 0.00 0.00 68 1007.8
20260506165827 10 270 4.8 9.7 0.00 0.00 0.00 68 1007.8
20260506165820 10 270 4.8 9.7 0.00 0.00 0.00 68 1007.8
20260506165311 10 270 3.2 4.8 0.00 0.00 0.00 67 1007.8
20260506164300 10 270 6.4 11.3 0.00 0.00 0.00 66 1007.5
20260506164253 10 270 6.4 11.3 0.00 0.00 0.00 66 1007.5
20260506162733 10 270 8.0 12.9 0.00 0.00 0.00 65 1007.2
20260506162727 10 270 8.0 12.9 0.00 0.00 0.00 65 1007.2
20260506162237 10 270 6.4 11.3 0.00 0.00 0.00 65
20260506162218 10 270 6.4 11.3 0.00 0.00 0.00 65 1007.3
20260506161715 10 270 6.4 9.7 0.00 0.00 0.00 64 1007.4
20260506161709 10 270 6.4 9.7 0.00 0.00 0.00 64 1007.4
20260506161206 10 270 4.8 8.0 0.00 0.00 0.00 64 1007.6
20260506161200 10 270 4.8 8.0 0.00 0.00 0.00 64 1007.6
20260506160651 11 270 3.2 8.0 0.00 0.00 0.00 63 1007.7
20260506160142 11 270 3.2 6.4 0.00 0.00 0.00 63 1007.8
20260506155733 11 270 1.6 3.2 0.00 0.00 0.00 62 1008.0
20260506155633 11 270 1.6 3.2 0.00 0.00 0.00 62 1008.0
20260506155131 11 270 1.6 1.6 0.00 0.00 0.00 62 1008.0
20260506155124 11 270 1.6 1.6 0.00 0.00 0.00 62 1008.0
20260506154616 12 270 0.0 1.6 0.00 0.00 0.00 61 1008.1
20260506154113 13 270 4.8 8.0 0.00 0.00 0.00 60 1008.1
20260506154107 13 270 4.8 8.0 0.00 0.00 0.00 60 1008.1
20260506153558 13 270 6.4 11.3 0.00 0.00 0.00 60 1008.3
20260506153048 14 270 3.2 4.8 0.00 0.00 0.00 60 1008.3
20260506152539 14 270 1.6 3.2 0.00 0.00 0.00 60 1008.3
20260506152030 14 270 1.6 4.8 0.00 0.00 0.00 60 1008.4
20260506151018 13 270 1.6 4.8 0.00 0.00 0.00 61 1008.5
20260506151012 13 270 1.6 4.8 0.00 0.00 0.00 61 1008.5
20260506150509 13 270 1.6 4.8 0.00 0.00 0.00 61 1008.6
20260506150503 13 270 1.6 4.8 0.00 0.00 0.00 61 1008.6
20260506145954 13 270 4.8 6.4 0.00 0.00 0.00 61 1008.6
20260506145445 13 270 3.2 6.4 0.00 0.00 0.00 60 1008.6
20260506145022 13 270 3.2 6.4 0.00 0.00 0.00 60 1008.6
20260506144936 13 270 3.2 6.4 0.00 0.00 0.00 60 1008.6
20260506144428 13 270 3.2 4.8 0.00 0.00 0.00 60 1008.7
20260506143415 14 270 3.2 6.4 0.00 0.00 0.00 60 1008.8
20260506143409 14 270 3.2 6.4 0.00 0.00 0.00 60 1008.8
20260506142906 14 270 3.2 6.4 0.00 0.00 0.00 59 1008.9
20260506142900 14 270 3.2 6.4 0.00 0.00 0.00 59 1008.9
20260506142350 15 270 3.2 6.4 0.00 0.00 0.00 59 1008.8
20260506141841 15 270 3.2 4.8 0.00 0.00 0.00 59 1008.8
20260506141332 15 270 3.2 4.8 0.00 0.00 0.00 59 1008.8
20260506140823 15 270 1.6 3.2 0.00 0.00 0.00 59 1008.9
20260506135811 16 270 3.2 4.8 0.00 0.00 0.00 58 1009.0
20260506135805 16 270 3.2 4.8 0.00 0.00 0.00 58 1009.0
20260506135305 16 270 4.8 6.4 0.00 0.00 0.00 58 1009.0
20260506135255 16 270 4.8 6.4 0.00 0.00 0.00 58 1009.0
20260506134753 17 270 3.2 6.4 0.00 0.00 0.00 58 1009.1
20260506134746 17 270 3.2 6.4 0.00 0.00 0.00 58 1009.1
20260506134243 17 270 4.8 9.7 0.00 0.00 0.00 58 1009.2
20260506134237 17 270 4.8 9.7 0.00 0.00 0.00 58 1009.2
20260506133731 17 270 3.2 0.0 0.00 0.00 0.00 58 1009.1
20260506133728 17 270 3.2 6.4 0.00 0.00 0.00 58 1009.1
20260506133225 17 270 4.8 8.0 0.00 0.00 0.00 58 1009.1
20260506133218 17 270 4.8 8.0 0.00 0.00 0.00 58 1009.1
20260506132709 17 270 4.8 6.4 0.00 0.00 0.00 59 1009.2
20260506132206 17 270 3.2 6.4 0.00 0.00 0.00 59 1009.3
20260506132200 17 270 3.2 6.4 0.00 0.00 0.00 59 1009.3
20260506131657 16 270 3.2 4.8 0.00 0.00 0.00 59 1009.4
20260506131650 16 270 3.2 4.8 0.00 0.00 0.00 59 1009.4
20260506131148 16 270 4.8 8.0 0.00 0.00 0.00 59 1009.4
20260506131141 16 270 4.8 8.0 0.00 0.00 0.00 59 1009.4
20260506130632 16 270 3.2 6.4 0.00 0.00 0.00 59 1009.5
20260506130129 16 270 3.2 4.8 0.00 0.00 0.00 59 1009.5
20260506130123 16 270 3.2 4.8 0.00 0.00 0.00 59 1009.5
20260506125651 16 270 3.2 6.4 0.00 0.00 0.00 59 1009.5
20260506125613 16 270 3.2 6.4 0.00 0.00 0.00 59 1009.5
20260506125111 16 270 3.2 6.4 0.00 0.00 0.00 59 1009.6
20260506125104 16 270 3.2 6.4 0.00 0.00 0.00 59 1009.6
20260506124601 17 270 4.8 9.7 0.00 0.00 0.00 59 1009.5
20260506124555 17 270 4.8 9.7 0.00 0.00 0.00 59 1009.5
20260506124052 16 270 3.2 6.4 0.00 0.00 0.00 60 1009.5
20260506124046 16 270 3.2 6.4 0.00 0.00 0.00 60 1009.5
20260506123543 16 270 6.4 12.9 0.00 0.00 0.00 60 1009.6
20260506123536 16 270 6.4 12.9 0.00 0.00 0.00 60 1009.6
20260506123034 17 270 3.2 6.4 0.00 0.00 0.00 60 1009.6
20260506123027 17 270 3.2 6.4 0.00 0.00 0.00 60 1009.6
20260506122518 17 270 3.2 8.0 0.00 0.00 0.00 60 1009.6
20260506122015 16 270 4.8 6.4 0.00 0.00 0.00 60 1009.6
20260506122009 16 270 4.8 6.4 0.00 0.00 0.00 60 1009.6
20260506121504 16 270 4.8 8.0 0.00 0.00 0.00 60 1009.6
20260506121500 16 270 4.8 8.0 0.00 0.00 0.00 60 1009.6
20260506120957 17 270 3.2 4.8 0.00 0.00 0.00 60 1009.6
20260506120950 17 270 3.2 4.8 0.00 0.00 0.00 60 1009.6
20260506120448 17 270 3.2 6.4 0.00 0.00 0.00 60 1009.6
20260506120441 17 270 3.2 6.4 0.00 0.00 0.00 60 1009.6
20260506115938 17 270 4.8 8.0 0.00 0.00 0.00 61 1009.7
20260506115932 17 270 4.8 8.0 0.00 0.00 0.00 61 1009.7
20260506115423 17 270 4.8 11.3 0.00 0.00 0.00 62 1009.6
20260506114913 16 270 4.8 8.0 0.00 0.00 0.00 62 1009.6
20260506114404 16 270 6.4 12.9 0.00 0.00 0.00 61 1009.6
20260506113953 16 270 3.2 4.8 0.00 0.00 0.00 62 1009.7
20260506113855 16 270 3.2 4.8 0.00 0.00 0.00 62 1009.7
20260506113345 16 270 4.8 8.0 0.00 0.00 0.00 63 1009.5
20260506112327 16 270 3.2 4.8 0.00 0.00 0.00 64 1009.5
20260506111824 15 270 4.8 8.0 0.00 0.00 0.00 65 1009.5
20260506111818 15 270 4.8 8.0 0.00 0.00 0.00 65 1009.5
20260506111309 15 270 4.8 8.0 0.00 0.00 0.00 65 1009.6
20260506110759 15 270 4.8 8.0 0.00 0.00 0.00 65 1009.5
20260506110257 14 270 4.8 9.7 0.00 0.00 0.00 65 1009.5
20260506110250 14 270 4.8 9.7 0.00 0.00 0.00 65 1009.5
20260506105748 14 270 4.8 9.7 0.00 0.00 0.00 65 1009.6
20260506105741 14 270 4.8 9.7 0.00 0.00 0.00 65 1009.6
20260506105232 14 270 4.8 9.7 0.00 0.00 0.00 66 1009.7
20260506104214 14 270 4.8 11.3 0.00 0.00 0.00 66 1009.7
20260506103711 14 270 4.8 6.4 0.00 0.00 0.00 67 1009.6
20260506103705 14 270 4.8 6.4 0.00 0.00 0.00 67 1009.6
20260506103202 14 270 4.8 11.3 0.00 0.00 0.00 67 1009.5
20260506103156 14 270 4.8 11.3 0.00 0.00 0.00 67 1009.5
20260506102137 13 270 4.8 8.0 0.00 0.00 0.00 69 1009.5
20260506101635 12 270 4.8 8.0 0.00 0.00 0.00 69 1009.6
20260506101628 12 270 4.8 8.0 0.00 0.00 0.00 69 1009.6
20260506100616 13 270 3.2 8.0 0.00 0.00 0.00 68 1009.5
20260506100610 13 270 3.2 8.0 0.00 0.00 0.00 68 1009.5
20260506100108 13 270 4.8 9.7 0.00 0.00 0.00 68 1009.5
20260506100101 13 270 4.8 9.7 0.00 0.00 0.00 68 1009.5
20260506095558 13 270 4.8 11.3 0.00 0.00 0.00 70 1009.5
20260506095552 13 270 4.8 11.3 0.00 0.00 0.00 70 1009.5
20260506095057 13 270 8.0 11.3 0.00 0.00 0.00 71 1009.6
20260506095043 13 270 8.0 11.3 0.00 0.00 0.00 71 1009.6
20260506094540 12 270 4.8 12.9 0.00 0.00 0.00 71 1009.4
20260506094534 12 270 4.8 12.9 0.00 0.00 0.00 71 1009.4
20260506092458 11 270 4.8 6.4 0.00 0.00 0.00 73 1009.3
20260506091949 11 270 4.8 9.7 0.00 0.00 0.00 73 1009.3
20260506091440 10 270 4.8 8.0 0.00 0.00 0.00 73 1009.3
20260506091021 10 270 3.2 8.0 0.00 0.00 0.00 73 1009.3
20260506090938 10 270 3.2 8.0 0.00 0.00 0.00 73 1009.3
20260506090931 10 270 3.2 8.0 0.00 0.00 0.00 73 1009.3
20260506090430 10 270 3.2 6.4 0.00 0.00 0.00 73 1009.1
20260506090422 10 270 3.2 6.4 0.00 0.00 0.00 73 1009.1
20260506085913 10 270 6.4 9.7 0.00 0.00 0.00 73 1009.2
20260506085405 10 270 4.8 8.0 0.00 0.00 0.00 73 1009.2
20260506083837 10 270 4.8 9.7 0.00 0.00 0.00 73 1009.0
20260506082819 10 270 4.8 6.4 0.00 0.00 0.00 73 1008.8
20260506081808 10 270 4.8 11.3 0.00 0.00 0.00 73 1008.9
20260506081802 10 270 4.8 11.3 0.00 0.00 0.00 73 1008.9
20260506081259 10 270 3.2 6.4 0.00 0.00 0.00 73
20260506081253 10 270 3.2 6.4 0.00 0.00 0.00 73 1008.9
20260506080750 10 270 4.8 9.7 0.00 0.00 0.00 73 1009.0
20260506080744 10 270 4.8 9.7 0.00 0.00 0.00 73 1009.0
20260506080241 10 270 3.2 6.4 0.00 0.00 0.00 73 1008.9
20260506080235 10 270 3.2 6.4 0.00 0.00 0.00 73 1008.9
20260506072633 8 270 4.8 8.0 0.00 0.00 0.00 73 1008.6
20260506072124 8 270 4.8 11.3 0.00 0.00 0.00 73 1008.5
20260506071615 8 270 6.4 9.7 0.00 0.00 0.00 73 1008.5
20260506071106 8 270 6.4 9.7 0.00 0.00 0.00 73 1008.4
20260506070604 8 270 6.4 9.7 0.00 0.00 0.00 73 1008.3
20260506070557 8 270 6.4 9.7 0.00 0.00 0.00 73 1008.3
20260506062447 8 270 6.4 11.3 0.00 0.00 0.00 72 1008.1
20260506061938 8 270 4.8 8.0 0.00 0.00 0.00 72 1008.1
20260506061429 8 270 6.4 11.3 0.00 0.00 0.00 72 1008.1
20260506060411 8 270 4.8 9.7 0.00 0.00 0.00 71 1008.1
20260506051243 8 270 6.4 9.7 0.00 0.00 0.00 70 1007.8
20260506050740 8 270 6.4 9.7 0.00 0.00 0.00 69 1007.8
20260506050734 8 270 6.4 9.7 0.00 0.00 0.00 69 1007.8
20260506050225 8 270 6.4 11.3 0.00 0.00 0.00 69 1007.8
20260506044658 8 270 4.8 9.7 0.00 0.00 0.00 68 1007.7
20260506044156 8 270 4.8 8.0 0.00 0.00 0.00 68 1007.6
20260506044149 8 270 4.8 8.0 0.00 0.00 0.00 68 1007.6
20260506043641 8 270 4.8 8.0 0.00 0.00 0.00 67 1007.6
20260506043132 8 270 6.4 14.5 0.00 0.00 0.00 67 1007.5
20260506042623 8 270 6.4 9.7 0.00 0.00 0.00 66 1007.4
20260506042114 8 270 4.8 8.0 0.00 0.00 0.00 66 1007.3
20260506041605 8 270 4.8 11.3 0.00 0.00 0.00 65 1007.3
20260506041056 7 270 4.8 9.7 0.00 0.00 0.00 65 1007.4
20260506040548 7 270 4.8 6.4 0.00 0.00 0.00 65 1007.4
20260506040039 7 270 4.8 9.7 0.00 0.00 0.00 65 1007.3
20260506035530 7 270 4.8 8.0 0.00 0.00 0.00 64 1007.4
20260506035021 7 270 4.8 8.0 0.00 0.00 0.00 64 1007.3
20260506034512 7 270 4.8 9.7 0.00 0.00 0.00 63 1007.4
20260506034004 7 270 4.8 6.4 0.00 0.00 0.00 63 1007.4
20260506033455 7 270 3.2 6.4 0.00 0.00 0.00 63 1007.4
20260506032953 7 270 4.8 8.0 0.00 0.00 0.00 63 100.7
20260506032946 7 270 4.8 8.0 0.00 0.00 0.00 63 1007.4
20260506032437 7 270 3.2 6.4 0.00 0.00 0.00 62 1007.5
20260506031935 7 270 3.2 6.4 0.00 0.00 0.00 62 1007.5
20260506031928 7 270 3.2 6.4 0.00 0.00 0.00 62 1007.5
20260506030917 7 270 3.2 6.4 0.00 0.00 0.00 61 1007.4
20260506030911 7 270 3.2 6.4 0.00 0.00 0.00 61 1007.4
20260506030402 7 270 3.2 4.8 0.00 0.00 0.00 61 1007.2
20260506025853 7 270 3.2 4.8 0.00 0.00 0.00 61 1007.3
20260506025344 7 270 3.2 6.4 0.00 0.00 0.00 61 1007.3
20260506024842 8 270 4.8 8.0 0.00 0.00 0.00 60 1007.3
20260506024836 8 270 4.8 8.0 0.00 0.00 0.00 60 1007.3
20260506024327 8 270 3.2 4.8 0.00 0.00 0.00 60 1007.2
20260506023818 8 270 3.2 6.4 0.00 0.00 0.00 60 1007.2
20260506023309 8 270 3.2 4.8 0.00 0.00 0.00 60 1007.2
20260506022800 8 270 3.2 6.4 0.00 0.00 0.00 60 1007.3
20260506022251 8 270 4.8 6.4 0.00 0.00 0.00 60 1007.2
20260506021743 8 270 3.2 8.0 0.00 0.00 0.00 59 1007.1